Weather History for Lander, WY

Change the Weather History Date:

Monday, April 14, 2014

  Actual Average Record
Temperature  
Mean Temperature 28 °F 43 °F  
Max Temperature 45 °F 56 °F 77 °F (1985)
Min Temperature 11 °F 31 °F 6 °F (1986)
Degree Days  
Heating Degree Days 37 22  
Month to date heating degree days 324 328  
Since 1 July heating degree days 6955 6947  
Cooling Degree Days 0 0  
Month to date cooling degree days 0 0  
Year to date cooling degree days 0 0  
Moisture  
Dew Point 12 °F    
Average Humidity 51    
Maximum Humidity 73    
Minimum Humidity 29    
Precipitation  
Precipitation 0.00 in 0.06 in 0.86 in (1938)
Month to date precipitation 0.59 0.78  
Year to date precipitation 2.57 2.93  
Snow  
Snow 0.00 in 0.60 in - ()
Month to date snowfall 4.3 8.3  
Since 1 July snowfall 73.5 78.0  
Snow Depth 4.00 in    
Sea Level Pressure  
Sea Level Pressure 30.29 in    
Wind  
Wind Speed 5 mph (South)    
Max Wind Speed 16 mph    
Max Gust Speed 18 mph    
Visibility 10 miles    
Events      
T = Trace of Precipitation, MM = Missing Value Source: NWS Daily Summary

Daily Weather History Graph

Daily Weather History Graph

Search for Another Location

Airport:

Trip Planner

Search our weather history database for the weather conditions in past years. The results will help you decide how hot, cold, wet, or windy it might be!

Date:

Astronomy

Apr. 14, 2014 Rise Set
Actual Time 6:34 AM MDT 7:56 PM MDT
Civil Twilight 6:05 AM MDT 8:25 PM MDT
Nautical Twilight 5:30 AM MDT 9:00 PM MDT
Astronomical Twilight 4:52 AM MDT 9:38 PM MDT
Moon 7:38 PM MDT (4/14) 6:09 AM MDT (4/14)
Length of Visible Light 14h 20m
Length of Day
13h 21m
Full, 100% of the Moon is Illuminated
Apr 14
Full
Apr 15
Full
Apr 22
Last Quarter
Apr 29
New
May 6
First Quarter

Hourly Weather History & Observations

Time (MDT) Temp. Windchill Dew Point Humidity Pressure Visibility Wind Dir Wind Speed Gust Speed Precip Events Conditions
12:53 AM 16.0 °F 10.4 °F 8.1 °F 71% 30.47 in 10.0 mi SSW 3.5 mph - N/A   Clear
1:53 AM 14.0 °F 1.2 °F 5.0 °F 67% 30.47 in 10.0 mi WSW 10.4 mph - N/A   Clear
2:53 AM 15.8 °F 2.1 °F 5.0 °F 62% 30.29 in 10.0 mi WSW 12.7 mph - N/A   Clear
3:53 AM 17.1 °F 7.6 °F 5.0 °F 59% 30.44 in 10.0 mi SSW 6.9 mph - N/A   Clear
4:53 AM 16.0 °F 10.4 °F 3.9 °F 59% 30.43 in 10.0 mi SSW 3.5 mph - N/A   Clear
5:53 AM 14.0 °F 8.2 °F 3.0 °F 62% 30.44 in 10.0 mi ESE 3.5 mph - N/A   Clear
6:53 AM 12.9 °F 5.2 °F 3.0 °F 65% 30.45 in 10.0 mi SW 4.6 mph - N/A   Clear
7:53 AM 15.1 °F 7.7 °F 5.0 °F 64% 30.45 in 10.0 mi ENE 4.6 mph - N/A   Clear
8:53 AM 19.0 °F - 7.0 °F 59% 30.44 in 10.0 mi Calm Calm - N/A   Clear
9:53 AM 17.1 °F 11.7 °F 8.1 °F 68% 30.44 in 10.0 mi SE 3.5 mph - N/A   Clear
10:53 AM 27.0 °F - 10.0 °F 49% 30.39 in 10.0 mi Calm Calm - N/A   Clear
11:53 AM 30.2 °F 22.6 °F 19.4 °F 64% 30.23 in 10.0 mi SE 8.1 mph - N/A   Clear
12:53 PM 33.1 °F 28.7 °F 17.1 °F 52% 30.32 in 10.0 mi ESE 4.6 mph - N/A   Clear
1:53 PM 36.0 °F 33.3 °F 10.0 °F 34% 30.30 in 10.0 mi SSW 3.5 mph - N/A   Clear
2:53 PM 35.6 °F 30.7 °F 15.8 °F 44% 30.15 in 10.0 mi South 5.8 mph - N/A   Clear
3:53 PM 39.0 °F 34.8 °F 19.0 °F 45% 30.20 in 10.0 mi SE 5.8 mph - N/A   Clear
4:53 PM 41.0 °F 37.1 °F 19.0 °F 41% 30.17 in 10.0 mi SSE 5.8 mph - N/A   Clear
5:53 PM 42.1 °F - 16.0 °F 35% 30.15 in 10.0 mi Calm Calm - N/A   Clear
6:53 PM 43.0 °F - 12.9 °F 30% 30.14 in 10.0 mi Calm Calm - N/A   Clear
7:53 PM 39.9 °F - 18.0 °F 41% 30.13 in 10.0 mi Calm Calm - N/A   Clear
8:53 PM 36.0 °F 31.1 °F 19.9 °F 52% 30.14 in 10.0 mi WSW 5.8 mph - N/A   Clear
9:53 PM 37.9 °F 29.2 °F 17.1 °F 43% 30.14 in 10.0 mi WSW 15.0 mph - N/A   Clear
10:53 PM 37.0 °F - 16.0 °F 42% 30.10 in 10.0 mi Calm Calm - N/A   Clear
11:53 PM 35.1 °F - 18.0 °F 50% 30.07 in 10.0 mi Calm Calm - N/A   Clear